📊 Raw Sensor Data
Showing records 41601 to 41625 of 84,985 total
| ID | Distance (ft) | Battery V | Battery A | Int Temp (°F) | Int Humid (%) | Ext Temp (°F) | Solar V | RSSI | SNR | Time Stamp |
|---|---|---|---|---|---|---|---|---|---|---|
| 43397 | 15.6 | 4.01 | 0 | 94 | 42 | 87 | 5.10 | -68 | 8 | 06/13/2025 03:00 PM |
| 43396 | 15.6 | 4.01 | 0 | 93 | 42 | 88 | 5.10 | -68 | 8 | 06/13/2025 02:45 PM |
| 43395 | 15.7 | 4.01 | 0 | 91 | 42 | 85 | 5.10 | -69 | 8 | 06/13/2025 02:30 PM |
| 43394 | 15.6 | 4.01 | 0 | 91 | 41 | 85 | 5.10 | -70 | 8 | 06/13/2025 02:15 PM |
| 43393 | 15.6 | 4.01 | 0 | 89 | 42 | 84 | 5.10 | -71 | 8 | 06/13/2025 02:00 PM |
| 43392 | 15.6 | 4.14 | 0 | 88 | 42 | 81 | 5.10 | -68 | 7 | 06/13/2025 01:45 PM |
| 43391 | 15.6 | 4.01 | 0 | 87 | 42 | 82 | 5.10 | -70 | 7 | 06/13/2025 01:30 PM |
| 43390 | 15.7 | 4.01 | 0 | 86 | 42 | 82 | 5.10 | -68 | 8 | 06/13/2025 01:15 PM |
| 43389 | 15.6 | 4.01 | 0 | 84 | 42 | 80 | 5.10 | -69 | 7 | 06/13/2025 01:00 PM |
| 43388 | 15.7 | 4.01 | 0 | 83 | 42 | 80 | 5.10 | -71 | 7 | 06/13/2025 12:45 PM |
| 43387 | 15.7 | 4.02 | 0 | 81 | 43 | 78 | 5.10 | -68 | 8 | 06/13/2025 12:30 PM |
| 43386 | 15.7 | 4.01 | 0 | 80 | 43 | 76 | 5.10 | -70 | 8 | 06/13/2025 12:15 PM |
| 43385 | 15.7 | 4.01 | 0 | 79 | 44 | 80 | 5.10 | -70 | 8 | 06/13/2025 12:00 PM |
| 43384 | 15.7 | 4.08 | 0 | 79 | 43 | 80 | 5.10 | -69 | 8 | 06/13/2025 11:45 AM |
| 43383 | 15.7 | 4.01 | 0 | 78 | 43 | 80 | 5.10 | -71 | 8 | 06/13/2025 11:30 AM |
| 43382 | 15.7 | 4.01 | 0 | 76 | 43 | 78 | 5.10 | -68 | 7 | 06/13/2025 11:15 AM |
| 43381 | 15.7 | 4.01 | 0 | 75 | 42 | 76 | 5.10 | -72 | 7 | 06/13/2025 10:45 AM |
| 43380 | 15.7 | 4.01 | 0 | 74 | 42 | 77 | 5.10 | -70 | 7 | 06/13/2025 10:30 AM |
| 43379 | 15.7 | 4.01 | 0 | 72 | 42 | 76 | 5.10 | -69 | 8 | 06/13/2025 10:15 AM |
| 43378 | 15.7 | 4.01 | 0 | 69 | 43 | 72 | 5.10 | -68 | 8 | 06/13/2025 09:45 AM |
| 43377 | 15.7 | 4.01 | 0 | 68 | 43 | 72 | 5.10 | -67 | 7 | 06/13/2025 09:30 AM |
| 43376 | 15.7 | 4.01 | 0 | 67 | 43 | 70 | 5.10 | -68 | 8 | 06/13/2025 09:15 AM |
| 43375 | 15.7 | 4.04 | 0 | 66 | 44 | 70 | 5.10 | -68 | 8 | 06/13/2025 09:00 AM |
| 43374 | 15.7 | 4.01 | 0 | 65 | 44 | 69 | 5.10 | -71 | 7 | 06/13/2025 08:45 AM |
| 43373 | 15.7 | 4.01 | 0 | 64 | 44 | 68 | 5.10 | -68 | 8 | 06/13/2025 08:30 AM |